Location: Newark
(39.0083°N, 20.7336°E)
Time: 16:02:41
(UTC+00:00)

Nauka - Pass Details

Date: 03 October 2021
Orbit: 418 x 423 km, 51.6° (Epoch: 18 October)

Event Time Altitude Azimuth Distance (km) Brightness Sun altitude
Rises 16:44:18 0° 316° (NW) 2,365 ? -6.2°
Reaches altitude 10° 16:46:47 10° 334° (NNW) 1,500 ? -6.7°
Maximum altitude 16:49:22 20° 24° (NNE) 1,029 ? -7.2°
Drops below altitude 10° 16:51:57 10° 74° (ENE) 1,498 ? -7.7°
Enters shadow 16:52:04 10° 76° (ENE) 1,531 ? -7.7°
